Weather in Milas

Turkey     37°18′50″N   27°47′01″E
temp.,
°C
wind,
m/s
gust,
m/s
humid.,
%
clouds,
%
prec.,
mm/h
press.,
hPa
HPBL,
m
9 march, tue
tue900:00+8ne125097 0.0 101623
03:00+7ne124981 0.0 101623
06:00+8ne2249100 0.0 101531
09:00+11ne2251100 0.0 101573
12:00+16nnw1136100 0.0 1014535
15:00+19s233199 0.0 10131032
18:00+16sw234768 0.0 1013145
21:00+11e125949 0.0 101422
10 march, wed
wed1000:00+10ene22668 0.0 101422
03:00+10ne226154 0.0 101324
06:00+10ne2263100 0.0 101225
09:00+12ne1159100 0.0 101268
12:00+18wsw224463 0.0 10111111
15:00+18sw345260 0.0 10101307
18:00+17wsw226071 0.0 1010536
21:00+11wnw118337 0.0 101123
11 march, thu
thu1100:00+10e118567 0.0 101222
03:00+9ne118667 0.0 101123
06:00+9e118867 0.0 101022
09:00+12ese118034 0.0 1009102
12:00+16sw566710 1.1 10091209
15:00+13w588341 3.8 10091021
18:00+10nw8107244 0.4 10101056
21:00+7n378239 0.4 1013210
12 march, fri
fri1200:00+5n47830 0.0 1017256
03:00+3n35830 0.0 1018127
06:00+2nne35820 0.0 1019131
09:00+5n35650 0.0 1020424
12:00+11n56360 0.0 1021905
15:00+14n56320 0.0 10201021
18:00+12nne47430 0.0 1019641
21:00+7nne22520 0.0 102027
13 march, sat
sat1300:00+6ne22510 0.0 102027
03:00+5ne12510 0.0 102023
06:00+5ne22460 0.0 101822
09:00+9ene014220 0.0 101942
12:00+15sw223318 0.0 1019619
15:00+17sw223414 0.0 1018938
18:00+13w225081 0.0 1018334
21:00+8nne116278 0.0 101822